Regional Weather Roundup
Issued by NWS

Home | Current Version | Previous Version | Graphics & Text | Print | Product List | Glossary On
Versions: 1 2 3 4 5 6 7 8 9 10 11 12 13 14 15 16 17 18 19 20 21 22 23 24 25 26 27 28 29 30 31 32 33 34 35 36 37 38 39 40 41 42 43 44 45 46 47 48 49 50
000
ASUS43 KFSD 281610
RWRSD

WEATHER ROUNDUP FOR SOUTH DAKOTA
NATIONAL WEATHER SERVICE SIOUX FALLS SD
1000 AM CST WED JAN 28 2015

NOTE: "FAIR" INDICATES FEW OR NO CLOUDS BELOW 12,000 FEET WITH NO
SIGNIFICANT WEATHER AND/OR OBSTRUCTIONS TO VISIBILITY.


SDZ001>005-009-010-012>017-281700-
NORTHWEST AND NORTH CENTRAL SOUTH DAKOTA

CITY           SKY/WX    TMP DP  RH WIND       PRES   REMARKS
BUFFALO          N/A     44  30  57 W15       29.80R
FAITH            N/A     47  31  53 NW18      29.79R
MOBRIDGE       PTSUNNY   35  31  85 NW3       29.73R
$$

SDZ012>016-024>037-041>051-057-063-072>074-281700-
SOUTHWEST AND SOUTH CENTRAL SOUTH DAKOTA

CITY           SKY/WX    TMP DP  RH WIND       PRES   REMARKS
RAPID CTY ARPT CLOUDY    55  28  35 NW21      29.84R
PIERRE         PTSUNNY   37  34  89 SW3       29.72F
CUSTER         CLOUDY    47  20  34 N9G23     29.89F
ELLSWORTH AFB  CLOUDY    55  28  35 N23G31    29.84R
PHILIP         MOSUNNY   50  32  50 W7        29.78S
PINE RIDGE     MOSUNNY   49  30  48 W10       29.88S
WINNER         FAIR      50  33  52 W16       29.73S
$$

SDZ004>011-016>023-039-040-281700-
NORTHEAST SOUTH DAKOTA

CITY           SKY/WX    TMP DP  RH WIND       PRES   REMARKS
ABERDEEN       PTSUNNY   35  32  88 SE5       29.73F
WATERTOWN      PTSUNNY   33  30  88 SE12      29.73F WCI  24
SISSETON         N/A     32  31  96 S13       29.77F WCI  22
$$

SDZ017-020-022-023-036>040-048>070-281700-
SOUTHEAST SOUTH DAKOTA

CITY           SKY/WX    TMP DP  RH WIND       PRES   REMARKS
SIOUX FALLS    CLOUDY    35  31  85 S15       29.76F WCI  25
HURON          PTSUNNY   35  30  82 S7        29.70F WCI  29
CHAMBERLAIN    PTSUNNY   37  33  85 NW8       29.72R
MITCHELL       MOSUNNY   36  32  85 S10       29.71F
YANKTON        PTSUNNY   36  30  80 SE9       29.76F
$$

ABBREVIATIONS USED IN REMARKS
   TC - TEMPERATURE IN CELSIUS
  WCI - WIND CHILL INDEX
   HX - HEAT INDEX
  VSB - VISIBILITY



USA.gov is the U.S. government's official web portal to all federal, state and local government web resources and services.